Brandon, Manitoba

10:21 AM CDT on May 23, 2017 (GMT -0500)
Brandon

Weather History for CYBR - September, 2013

Change the Weather History Date:

Friday, September 20, 2013

  Actual Average Record
Temperature  
Mean Temperature 45 °F -  
Max Temperature 53 °F 57 °F 77 °F (2015)
Min Temperature 37 °F 33 °F 24 °F (1997)
Degree Days  
Heating Degree Days 20    
Moisture  
Dew Point 42 °F    
Average Humidity 80    
Maximum Humidity 100    
Minimum Humidity 56    
Precipitation  
Precipitation 0.00 in 0.04 in - ()
Sea Level Pressure  
Sea Level Pressure 30.02 in    
Wind  
Wind Speed 7 mph ()    
Max Wind Speed 15 mph    
Max Gust Speed 20 mph    
Visibility 15.0 miles    
Events      
Averages and records for this station are not official NWS values.
T = Trace of Precipitation, MM = Missing Value Source: Averaged Metar Reports

Daily Weather History Graph

Daily Weather History Graph

Search for Another Location

Airport or City:

Trip Planner

Search our weather history database for the weather conditions in past years. The results will help you decide how hot, cold, wet, or windy it might be!

Date:

Astronomy

Sep. 20, 2013 Rise Set
Actual Time 7:23 AM CDT 7:41 PM CDT
Civil Twilight 6:51 AM CDT 8:13 PM CDT
Nautical Twilight 6:13 AM CDT 8:51 PM CDT
Astronomical Twilight 5:33 AM CDT 9:31 PM CDT
Moon 8:02 PM CDT (9/20) 8:52 AM CDT (9/20)
Length of Visible Light 13h 22m
Length of Day
12h 17m
Full, 98% of the Moon is Illuminated
Sep 20
Full
Sep 26
Last Quarter
Oct 4
New
Oct 11
First Quarter
Oct 18
Full

Hourly Weather History & Observations

Time (CDT) Temp. Windchill Dew Point Humidity Pressure Visibility Wind Dir Wind Speed Gust Speed Precip Events Conditions
12:00 AM 50.0 °F - 46.4 °F 87% 30.00 in 15.0 mi WNW 8.1 mph - N/A   Overcast
1:00 AM 48.2 °F - 46.4 °F 93% 30.00 in 15.0 mi West 6.9 mph - N/A   Mostly Cloudy
2:00 AM 48.2 °F - 46.4 °F 93% 30.00 in 15.0 mi NW 5.8 mph - N/A   Overcast
3:00 AM 48.2 °F - 44.6 °F 87% 30.00 in 15.0 mi West 5.8 mph - N/A   Overcast
4:00 AM 46.4 °F 43.5 °F 42.8 °F 87% 30.00 in 15.0 mi West 5.8 mph - N/A   Partly Cloudy
5:00 AM 42.8 °F 38.0 °F 41.0 °F 93% 29.99 in 15.0 mi WNW 8.1 mph - N/A   Partly Cloudy
6:00 AM 41.0 °F 34.7 °F 39.2 °F 93% 30.00 in 15.0 mi West 10.4 mph - N/A   Partly Cloudy
7:00 AM 38 °F - 38 °F 98% 30.01 in 15 mi West 6.9 mph - -   Scattered Clouds
7:00 AM 37.4 °F 31.4 °F 37.4 °F 100% 30.01 in 15.0 mi West 8.1 mph - N/A   Partly Cloudy
8:00 AM 39.2 °F 35.0 °F 39.2 °F 100% 30.02 in 15.0 mi West 5.8 mph - N/A   Mostly Cloudy
9:00 AM 46.4 °F 41.5 °F 42.8 °F 87% 30.02 in 15.0 mi NW 10.4 mph - N/A   Scattered Clouds
10:00 AM 48.2 °F - 44.6 °F 87% 30.04 in 15.0 mi NW 9.2 mph - N/A   Mostly Cloudy
11:00 AM 50.0 °F - 41.0 °F 71% 30.04 in 15.0 mi NNW 10.4 mph - N/A   Mostly Cloudy
12:00 PM 51.8 °F - 42.8 °F 71% 30.05 in 15.0 mi NNW 15.0 mph - N/A   Overcast
1:00 PM 53 °F - 42 °F 56% 30.04 in 15 mi NNW 11.5 mph - -   Overcast
1:00 PM 51.8 °F - 42.8 °F 71% 30.04 in 15.0 mi NW 12.7 mph - N/A   Overcast
2:00 PM 53.6 °F - 41.0 °F 62% 30.04 in 15.0 mi NW 11.5 mph 19.6 mph N/A   Overcast
3:00 PM 53.6 °F - 41.0 °F 62% 30.03 in 15.0 mi NW 9.2 mph - N/A   Overcast
4:00 PM 53.6 °F - 41.0 °F 62% 30.03 in 15.0 mi NW 10.4 mph - N/A   Overcast
5:00 PM 53.6 °F - 41.0 °F 62% 30.02 in 15.0 mi North 10.4 mph - N/A   Overcast
6:00 PM 53.6 °F - 42.8 °F 67% 30.03 in 15.0 mi NNE 6.9 mph - N/A   Mostly Cloudy
7:00 PM 51.8 °F - 42.8 °F 71% 30.03 in 15.0 mi NNE 4.6 mph - N/A   Mostly Cloudy
8:00 PM 51.8 °F - 41.0 °F 67% 30.03 in 15.0 mi NE 3.5 mph - N/A   Mostly Cloudy
9:00 PM 48.2 °F - 41.0 °F 76% 30.03 in 15.0 mi NE 5.8 mph - N/A   Scattered Clouds
10:00 PM 42.8 °F 40.1 °F 37.4 °F 81% 30.04 in 15.0 mi East 4.6 mph - N/A   Partly Cloudy
11:00 PM 39.2 °F 37.0 °F 35.6 °F 87% 30.04 in 15.0 mi NE 3.5 mph - N/A   Clear